JOL YMEN-YMEN

Flight info

Callsign JOL
Flight time 0h 2m
Altitude 1000
Route CCTS
Aircraft KL25/L-VGD/A

Departure

Time 2026-04-19 04:13
Airport Melbourne Essendon Airport (YMEN)

Arrival

Time 2026-04-19 04:16
Airport Melbourne Essendon Airport (YMEN)
Time Latitude Longitude Altitude Speed Heading
2026-04-19 04:07 -37.72002 144.89341 270 ft 0 kts 101°
2026-04-19 04:08 -37.72005 144.89348 270 ft 6 kts 150°
2026-04-19 04:08 -37.72097 144.89349 271 ft 18 kts 164°
2026-04-19 04:08 -37.72137 144.89488 274 ft 19 kts 82°
2026-04-19 04:08 -37.72098 144.89629 281 ft 17 kts 63°
2026-04-19 04:09 -37.72134 144.89741 283 ft 16 kts 146°
2026-04-19 04:09 -37.72161 144.89764 283 ft 0 kts 139°
2026-04-19 04:09 -37.72162 144.89766 283 ft 3 kts 140°
2026-04-19 04:09 -37.72194 144.89846 282 ft 16 kts 78°
2026-04-19 04:10 -37.72112 144.89924 283 ft 17 kts 356°
2026-04-19 04:10 -37.71997 144.89936 285 ft 14 kts 61°
2026-04-19 04:10 -37.72024 144.89977 286 ft 0 kts 181°
2026-04-19 04:11 -37.72032 144.89978 286 ft 7 kts 180°
2026-04-19 04:11 -37.72049 144.89983 286 ft 4 kts 112°
2026-04-19 04:12 -37.72085 144.90078 288 ft 18 kts 180°
2026-04-19 04:12 -37.72254 144.90092 281 ft 44 kts 177°
2026-04-19 04:12 -37.72568 144.90101 433 ft 46 kts 171°
2026-04-19 04:12 -37.72899 144.90127 571 ft 51 kts 170°
2026-04-19 04:13 -37.73242 144.90164 742 ft 49 kts 171°
2026-04-19 04:13 -37.73553 144.90321 859 ft 55 kts 126°
2026-04-19 04:13 -37.73645 144.90855 915 ft 69 kts 95°
2026-04-19 04:13 -37.73669 144.91480 985 ft 70 kts 91°
2026-04-19 04:14 -37.73487 144.91941 801 ft 62 kts 51°
2026-04-19 04:14 -37.73082 144.91875 407 ft 75 kts 303°
2026-04-19 04:14 -37.73080 144.91280 280 ft 62 kts 264°
2026-04-19 04:14 -37.73108 144.90799 482 ft 54 kts 264°
2026-04-19 04:15 -37.73121 144.90305 648 ft 56 kts 263°
2026-04-19 04:15 -37.73158 144.89839 803 ft 54 kts 237°
2026-04-19 04:15 -37.73485 144.89521 847 ft 71 kts 225°
2026-04-19 04:15 -37.73425 144.88980 656 ft 62 kts 307°
2026-04-19 04:16 -37.73154 144.89152 355 ft 56 kts 90°
2026-04-19 04:16 -37.73135 144.89591 276 ft 42 kts 86°
2026-04-19 04:16 -37.73123 144.89938 265 ft 51 kts 87°
2026-04-19 04:16 -37.73095 144.90399 427 ft 53 kts 83°
2026-04-19 04:17 -37.73074 144.90826 639 ft 43 kts 90°
2026-04-19 04:17 -37.73078 144.91212 793 ft 42 kts 96°
2026-04-19 04:17 -37.73230 144.91466 880 ft 53 kts 170°
2026-04-19 04:17 -37.73505 144.91172 1022 ft 62 kts 253°
2026-04-19 04:18 -37.73470 144.90663 1170 ft 56 kts 271°
2026-04-19 04:18 -37.73513 144.90086 1191 ft 78 kts 262°
2026-04-19 04:18 -37.73571 144.89377 1176 ft 72 kts 249°
2026-04-19 04:18 -37.73523 144.88890 1110 ft 49 kts 303°
2026-04-19 04:19 -37.73234 144.88931 684 ft 64 kts 59°
2026-04-19 04:19 -37.73137 144.89580 273 ft 67 kts 89°
2026-04-19 04:19 -37.73119 144.90151 261 ft 73 kts 86°
2026-04-19 04:19 -37.73093 144.90809 261 ft 79 kts 87°
2026-04-19 04:20 -37.73082 144.91262 556 ft 29 kts 92°
2026-04-19 04:20 -37.73136 144.91512 633 ft 33 kts 141°
2026-04-19 04:20 -37.73406 144.91363 701 ft 54 kts 232°
2026-04-19 04:20 -37.73473 144.90853 777 ft 69 kts 257°
2026-04-19 04:21 -37.73531 144.90134 717 ft 90 kts 261°
2026-04-19 04:21 -37.73566 144.89351 769 ft 84 kts 278°
2026-04-19 04:21 -37.73161 144.89178 783 ft 73 kts 80°
2026-04-19 04:21 -37.73185 144.89618 1085 ft 38 kts 89°
2026-04-19 04:22 -37.73151 144.89940 1254 ft 37 kts 66°
2026-04-19 04:22 -37.72695 144.90106 634 ft 64 kts 86°
2026-04-19 04:22 -37.72996 144.90200 732 ft 11 kts 190°
2026-04-19 04:22 -37.72947 144.90038 277 ft 88 kts
2026-04-19 04:23 -37.72472 144.90008 336 ft 73 kts 39°
2026-04-19 04:23 -37.72863 144.90126 415 ft 53 kts 176°
2026-04-19 04:23 -37.73066 144.90333 551 ft 61 kts 210°
2026-04-19 04:23 -37.73083 144.89900 707 ft 53 kts 351°
2026-04-19 04:24 -37.72629 144.90064 312 ft 101 kts 20°
2026-04-19 04:24 -37.72516 144.90112 295 ft 76 kts 46°
2026-04-19 04:24 -37.72762 144.90197 274 ft 83 kts 178°
2026-04-19 04:24 -37.72998 144.90377 305 ft 78 kts 78°
2026-04-19 04:25 -37.73014 144.90663 581 ft 45 kts 201°
2026-04-19 04:25 -37.73098 144.90169 561 ft 62 kts 263°
2026-04-19 04:25 -37.73164 144.89631 546 ft 72 kts 268°
2026-04-19 04:25 -37.73211 144.89206 436 ft 65 kts 25°
2026-04-19 04:26 -37.73132 144.89698 270 ft 47 kts 88°
2026-04-19 04:26 -37.73127 144.90023 257 ft 26 kts 90°
2026-04-19 04:26 -37.73105 144.90073 256 ft 11 kts 269°
2026-04-19 04:26 -37.73040 144.90008 257 ft 18 kts 359°
2026-04-19 04:27 -37.72882 144.89999 261 ft 28 kts 353°
2026-04-19 04:27 -37.72694 144.89988 263 ft 29 kts 360°
2026-04-19 04:27 -37.72484 144.89941 272 ft 27 kts 324°